Simultaneous Nadir Overpasses (SNOs) Predictions

Prediction of SNOs over PacNW region [( 10.00, 139.50) to ( 22.70, 165.60)] between AQUA and NPP Satellites:

Table of predicted SNOs over PacNW region for the next 30.0 days since TLE Epoch: 4/12/2019
Index Date (AQUA) Time (AQUA) AQUA Lat,Lon Date (NPP) Time (NPP) NPP Lat,Lon Distance(km) Time Diff (sec)
1 04/20/2019 15:59:43 22.60, 147.45 04/20/2019 16:01:26 23.22, 144.61 299.18 103
2 04/28/2019 15:10:08 22.60, 159.83 04/28/2019 15:10:47 23.16, 157.26 270.99 39
3 05/06/2019 15:59:25 22.59, 147.50 05/06/2019 16:01:35 23.26, 144.58 308.22 130




NCC Satellite Simultaneous Nadir Overpasses (SNOs) Prediction Service
